Tracking 31027 objects as of 19-Jul-2025
HD Live streaming from Space Station
objects crossing your sky now

FENGYUN 1C DEB

Track FENGYUN 1C DEB now!
10-day predictions


NORAD ID: 37438
Int'l Code: 1999-025EHG
Perigee: 829.5 km
Apogee: 869.0 km
Inclination: 98.8 °
Period: 101.8 minutes
Semi major axis: 7220 km
RCS: 0.0099 m2 (small)
Launch date: May 10, 1999
Source: People's Republic of China (PRC)
Launch site: Taiyaun Space Center, China (TSC)

Note: This is SATELLITE DEBRIS
Your satellite tracking list
FLOCK 3P 17
Track 1 satellite(s)




NASA's NSSDC Master Catalog

Two Line Element Set (TLE):
1 37438U 99025EHG 25195.36083122  .00000718  00000-0  39169-3 0  9994
2 37438  98.7557 237.2165 0027371 295.2187  64.6149 14.15062457579947
Source of the keplerian elements: AFSPC